Location: Newark
(52.3500°N, 175.9667°E)
Time: 20:56:05
(UTC+00:00)

N. Korean satellite - Pass Details

Date: 09 March 2021
Orbit: 452 x 499 km, 97.2° (Epoch: 15 April)

Event Time Altitude Azimuth Distance (km) Brightness Sun altitude
Rises 16:49:09 0° 26° (NNE) 2,545 10.9 -18.0°
Reaches altitude 10° 16:51:43 10° 46° (NE) 1,670 10.2 -17.6°
Maximum altitude 16:54:16 18° 92° (E) 1,249 9.6 -17.3°
Drops below altitude 10° 16:56:49 10° 137° (SE) 1,678 9.6 -16.9°
Sets 16:59:24 0° 156° (SSE) 2,562 10.3 -16.5°
